Location: Cheadle
(51.0146°N, 113.5417°W)
Time: 16:31:20
(UTC+00:00)

TIGRISAT - Pass Details

Date: 08 December 2023
Orbit: 597 x 674 km, 97.7° (Epoch: 28 February)

Event Time Altitude Azimuth Distance (km) Brightness Sun altitude
Exits shadow 01:13:40 - 10° (N) 2,741 ? -15.6°
Reaches altitude 10° 01:15:21 10° 7° (N) 2,050 ? -15.9°
Maximum altitude 01:19:45 60° 289° (WNW) 729 ? -16.5°
Drops below altitude 10° 01:24:00 10° 210° (SSW) 1,986 ? -17.2°
Sets 01:26:10 0° 206° (SSW) 2,875 ? -17.5°
